Location: Newark
(13.6797°N, 8.5297°E)
Time: 21:00:31
(UTC+00:00)

Courier 1B Rocket - Pass Details

Date: 26 January 2020
Orbit: 920 x 1202 km, 28.2° (Epoch: 27 February)

Event Time Altitude Azimuth Distance (km) Brightness Sun altitude
Rises 19:18:40 0° 263° (W) 3,545 9.2 -27.8°
Reaches altitude 10° 19:22:58 10° 236° (SW) 2,602 8.1 -28.8°
Maximum altitude 19:25:33 13° 211° (SSW) 2,419 7.5 -29.4°
Drops below altitude 10° 19:28:10 10° 186° (S) 2,626 7.4 -30.0°
Enters shadow 19:32:03 - 160° (SSE) 3,467 7.8 -30.9°
